Time,TemperatureF,DewpointF,PressureIn,WindDirection,WindDirectionDegrees,WindSpeedMPH,WindSpeedGustMPH,Humidity,HourlyPrecipIn,Conditions,Clouds,dailyrainin,SoftwareType,DateUTC
2013-01-18 00:00:00,11.7,0.0,29.77,NW,315,2.0,9.0,53,0.00,,,0.00,Rainwise IP-100,2013-01-18 05:00:00,
2013-01-18 00:01:00,11.7,0.0,29.77,NNW,337,3.0,9.0,54,0.00,,,0.00,Rainwise IP-100,2013-01-18 05:01:00,
2013-01-18 00:06:00,11.6,0.0,29.76,NW,315,2.0,8.0,51,0.00,,,0.00,Rainwise IP-100,2013-01-18 05:06:00,
2013-01-18 00:11:00,11.5,0.0,29.76,NNW,337,1.0,7.0,52,0.00,,,0.00,Rainwise IP-100,2013-01-18 05:11:00,
2013-01-18 00:16:00,11.3,0.0,29.76,WNW,292,2.0,7.0,51,0.00,,,0.00,Rainwise IP-100,2013-01-18 05:16:00,
2013-01-18 00:21:00,11.3,0.0,29.75,WNW,292,1.0,9.0,53,0.00,,,0.00,Rainwise IP-100,2013-01-18 05:21:00,
2013-01-18 00:26:00,10.9,0.0,29.75,NNW,337,1.0,9.0,50,0.00,,,0.00,Rainwise IP-100,2013-01-18 05:26:00,
2013-01-18 00:30:00,10.9,0.0,29.75,WNW,292,2.0,6.0,52,0.00,,,0.00,Rainwise IP-100,2013-01-18 05:30:00,
2013-01-18 00:35:00,10.8,0.0,29.75,NW,315,3.0,6.0,51,0.00,,,0.00,Rainwise IP-100,2013-01-18 05:35:00,
2013-01-18 00:40:00,10.6,0.0,29.75,WNW,292,2.0,7.0,51,0.00,,,0.00,Rainwise IP-100,2013-01-18 05:40:00,
2013-01-18 00:45:00,10.6,0.0,29.75,NNW,337,3.0,7.0,52,0.00,,,0.00,Rainwise IP-100,2013-01-18 05:45:00,
2013-01-18 00:50:00,10.4,0.0,29.76,WNW,292,4.0,10.0,52,0.00,,,0.00,Rainwise IP-100,2013-01-18 05:50:00,
2013-01-18 00:55:00,10.3,0.0,29.76,North,360,2.0,9.0,53,0.00,,,0.00,Rainwise IP-100,2013-01-18 05:55:00,
2013-01-18 01:00:00,10.4,0.0,29.77,NW,315,4.0,6.0,56,0.00,,,0.00,Rainwise IP-100,2013-01-18 06:00:00,
2013-01-18 01:05:00,10.5,0.0,29.77,NW,315,2.0,7.0,57,0.00,,,0.00,Rainwise IP-100,2013-01-18 06:05:00,
2013-01-18 01:10:00,10.6,0.0,29.78,WNW,292,1.0,6.0,56,0.00,,,0.00,Rainwise IP-100,2013-01-18 06:10:00,
2013-01-18 01:15:00,10.5,0.0,29.79,North,360,1.0,7.0,56,0.00,,,0.00,Rainwise IP-100,2013-01-18 06:15:00,
2013-01-18 01:20:00,10.3,0.0,29.79,North,360,2.0,7.0,53,0.00,,,0.00,Rainwise IP-100,2013-01-18 06:20:00,
2013-01-18 01:25:00,10.2,0.0,29.80,SE,135,1.0,7.0,53,0.00,,,0.00,Rainwise IP-100,2013-01-18 06:25:00,
2013-01-18 01:30:00,10.1,0.0,29.80,North,360,2.0,6.0,53,0.00,,,0.00,Rainwise IP-100,2013-01-18 06:30:00,
2013-01-18 01:35:00,9.9,0.0,29.80,NNW,337,4.0,6.0,51,0.00,,,0.00,Rainwise IP-100,2013-01-18 06:35:00,
2013-01-18 01:40:00,9.8,0.0,29.81,NW,315,2.0,7.0,50,0.00,,,0.00,Rainwise IP-100,2013-01-18 06:40:00,
2013-01-18 01:45:00,9.7,-6.0,29.80,NW,315,7.0,11.0,48,0.00,,,0.00,Rainwise IP-100,2013-01-18 06:45:00,
2013-01-18 01:50:00,9.7,-6.0,29.80,North,360,1.0,10.0,48,0.00,,,0.00,Rainwise IP-100,2013-01-18 06:50:00,
2013-01-18 01:55:00,9.6,-6.0,29.81,NNW,337,1.0,7.0,48,0.00,,,0.00,Rainwise IP-100,2013-01-18 06:55:00,
2013-01-18 02:00:00,9.4,0.0,29.81,North,360,2.0,8.0,51,0.00,,,0.00,Rainwise IP-100,2013-01-18 07:00:00,
2013-01-18 02:05:00,9.3,0.0,29.78,NNW,337,1.0,6.0,52,0.00,,,0.00,Rainwise IP-100,2013-01-18 07:05:00,
2013-01-18 02:10:00,9.4,0.0,29.79,WNW,292,4.0,5.0,54,0.00,,,0.00,Rainwise IP-100,2013-01-18 07:10:00,
2013-01-18 02:15:00,9.3,0.0,29.79,North,360,2.0,6.0,55,0.00,,,0.00,Rainwise IP-100,2013-01-18 07:15:00,
2013-01-18 02:20:00,9.2,0.0,29.79,ESE,112,1.0,11.0,56,0.00,,,0.00,Rainwise IP-100,2013-01-18 07:20:00,
2013-01-18 02:25:00,9.1,0.0,29.78,NNW,337,1.0,4.0,57,0.00,,,0.00,Rainwise IP-100,2013-01-18 07:25:00,
2013-01-18 02:30:00,8.9,0.0,29.77,NNW,337,2.0,4.0,56,0.00,,,0.00,Rainwise IP-100,2013-01-18 07:30:00,
2013-01-18 02:35:00,8.9,0.0,29.78,NNW,337,4.0,9.0,57,0.00,,,0.00,Rainwise IP-100,2013-01-18 07:35:00,
2013-01-18 02:40:00,8.7,0.0,29.77,NNW,337,1.0,6.0,56,0.00,,,0.00,Rainwise IP-100,2013-01-18 07:40:00,
2013-01-18 02:45:00,8.7,0.0,29.77,WNW,292,2.0,5.0,56,0.00,,,0.00,Rainwise IP-100,2013-01-18 07:45:00,
2013-01-18 02:50:00,8.7,0.0,29.78,NW,315,0.0,4.0,57,0.00,,,0.00,Rainwise IP-100,2013-01-18 07:50:00,
2013-01-18 02:55:00,8.7,0.0,29.78,SSE,157,1.0,14.0,58,0.00,,,0.00,Rainwise IP-100,2013-01-18 07:55:00,
2013-01-18 03:00:00,8.6,0.0,29.77,East,90,1.0,6.0,56,0.00,,,0.00,Rainwise IP-100,2013-01-18 08:00:00,
2013-01-18 03:05:00,8.4,-6.0,29.78,NNW,337,1.0,5.0,54,0.00,,,0.00,Rainwise IP-100,2013-01-18 08:05:00,
2013-01-18 03:10:00,8.6,0.0,29.80,West,270,3.0,5.0,58,0.00,,,0.00,Rainwise IP-100,2013-01-18 08:10:00,
2013-01-18 03:15:00,8.4,-6.0,29.79,North,360,0.0,6.0,56,0.00,,,0.00,Rainwise IP-100,2013-01-18 08:15:00,
2013-01-18 03:20:00,8.4,-6.0,29.78,ESE,112,0.0,4.0,58,0.00,,,0.00,Rainwise IP-100,2013-01-18 08:20:00,
2013-01-18 03:25:00,8.4,-6.0,29.77,NNW,337,1.0,7.0,55,0.00,,,0.00,Rainwise IP-100,2013-01-18 08:25:00,
2013-01-18 03:30:00,8.3,-6.0,29.76,NNW,337,3.0,5.0,54,0.00,,,0.00,Rainwise IP-100,2013-01-18 08:30:00,
2013-01-18 03:35:00,8.3,-6.0,29.77,SE,135,2.0,6.0,49,0.00,,,0.00,Rainwise IP-100,2013-01-18 08:35:00,
2013-01-18 03:40:00,8.2,-6.0,29.78,WNW,292,2.0,6.0,50,0.00,,,0.00,Rainwise IP-100,2013-01-18 08:40:00,
2013-01-18 03:45:00,8.2,-6.0,29.78,NW,315,1.0,6.0,49,0.00,,,0.00,Rainwise IP-100,2013-01-18 08:45:00,
2013-01-18 03:50:00,8.2,-6.0,29.78,WNW,292,3.0,9.0,47,0.00,,,0.00,Rainwise IP-100,2013-01-18 08:50:00,
2013-01-18 03:55:00,8.2,-6.0,29.78,NW,315,4.0,6.0,49,0.00,,,0.00,Rainwise IP-100,2013-01-18 08:55:00,
2013-01-18 04:00:00,7.9,-6.0,29.78,North,360,0.0,7.0,47,0.00,,,0.00,Rainwise IP-100,2013-01-18 09:00:00,
2013-01-18 04:06:00,7.8,-6.0,29.78,NW,315,3.0,6.0,48,0.00,,,0.00,Rainwise IP-100,2013-01-18 09:06:00,
2013-01-18 04:11:00,7.8,-6.0,29.78,East,90,3.0,7.0,50,0.00,,,0.00,Rainwise IP-100,2013-01-18 09:11:00,
2013-01-18 04:16:00,7.9,-6.0,29.77,North,360,1.0,4.0,52,0.00,,,0.00,Rainwise IP-100,2013-01-18 09:16:00,
2013-01-18 04:21:00,7.9,-6.0,29.78,NNW,337,2.0,9.0,52,0.00,,,0.00,Rainwise IP-100,2013-01-18 09:21:00,
2013-01-18 04:26:00,7.9,-6.0,29.77,NW,315,2.0,7.0,55,0.00,,,0.00,Rainwise IP-100,2013-01-18 09:26:00,
2013-01-18 04:31:00,7.9,-6.0,29.76,East,90,1.0,7.0,55,0.00,,,0.00,Rainwise IP-100,2013-01-18 09:31:00,
2013-01-18 04:36:00,7.8,-6.0,29.77,ESE,112,1.0,4.0,55,0.00,,,0.00,Rainwise IP-100,2013-01-18 09:36:00,
2013-01-18 04:41:00,7.6,-6.0,29.79,NW,315,2.0,6.0,55,0.00,,,0.00,Rainwise IP-100,2013-01-18 09:41:00,
2013-01-18 04:46:00,7.6,-6.0,29.79,NNW,337,0.0,6.0,57,0.00,,,0.00,Rainwise IP-100,2013-01-18 09:46:00,
2013-01-18 04:51:00,7.5,-6.0,29.80,NW,315,2.0,6.0,56,0.00,,,0.00,Rainwise IP-100,2013-01-18 09:51:00,
2013-01-18 04:56:00,7.5,0.0,29.80,North,360,1.0,4.0,59,0.00,,,0.00,Rainwise IP-100,2013-01-18 09:56:00,
2013-01-18 05:01:00,7.4,-6.0,29.80,NNW,337,7.0,7.0,57,0.00,,,0.00,Rainwise IP-100,2013-01-18 10:01:00,
2013-01-18 05:06:00,7.4,-6.0,29.80,North,360,1.0,7.0,57,0.00,,,0.00,Rainwise IP-100,2013-01-18 10:06:00,
2013-01-18 05:11:00,7.2,-6.0,29.79,West,270,1.0,6.0,57,0.00,,,0.00,Rainwise IP-100,2013-01-18 10:11:00,
2013-01-18 05:16:00,6.9,-6.0,29.80,SSE,157,1.0,5.0,58,0.00,,,0.00,Rainwise IP-100,2013-01-18 10:16:00,
2013-01-18 05:21:00,6.9,0.0,29.80,NW,315,0.0,7.0,60,0.00,,,0.00,Rainwise IP-100,2013-01-18 10:21:00,
2013-01-18 05:26:00,6.9,0.0,29.79,SE,135,0.0,11.0,60,0.00,,,0.00,Rainwise IP-100,2013-01-18 10:26:00,
2013-01-18 05:31:00,6.7,0.0,29.79,North,360,2.0,14.0,59,0.00,,,0.00,Rainwise IP-100,2013-01-18 10:31:00,
2013-01-18 05:36:00,6.4,-6.0,29.78,NNW,337,3.0,9.0,58,0.00,,,0.00,Rainwise IP-100,2013-01-18 10:36:00,
2013-01-18 05:41:00,6.2,0.0,29.80,NW,315,0.0,7.0,60,0.00,,,0.00,Rainwise IP-100,2013-01-18 10:41:00,
2013-01-18 05:46:00,5.9,0.0,29.82,NNW,337,1.0,6.0,60,0.00,,,0.00,Rainwise IP-100,2013-01-18 10:46:00,
2013-01-18 05:51:00,5.9,0.0,29.83,NNW,337,4.0,7.0,61,0.00,,,0.00,Rainwise IP-100,2013-01-18 10:51:00,
2013-01-18 05:56:00,5.9,0.0,29.83,North,360,1.0,7.0,61,0.00,,,0.00,Rainwise IP-100,2013-01-18 10:56:00,
2013-01-18 06:01:00,5.8,0.0,29.83,NNW,337,4.0,5.0,60,0.00,,,0.00,Rainwise IP-100,2013-01-18 11:01:00,
2013-01-18 06:06:00,5.9,0.0,29.82,NW,315,1.0,9.0,61,0.00,,,0.00,Rainwise IP-100,2013-01-18 11:06:00,
2013-01-18 06:11:00,5.7,0.0,29.82,WNW,292,1.0,9.0,59,0.00,,,0.00,Rainwise IP-100,2013-01-18 11:11:00,
2013-01-18 06:16:00,5.6,0.0,29.81,NNW,337,1.0,5.0,60,0.00,,,0.00,Rainwise IP-100,2013-01-18 11:16:00,
2013-01-18 06:21:00,5.5,-6.0,29.81,North,360,2.0,8.0,58,0.00,,,0.00,Rainwise IP-100,2013-01-18 11:21:00,
2013-01-18 06:26:00,5.4,-6.0,29.82,SSE,157,2.0,7.0,57,0.00,,,0.00,Rainwise IP-100,2013-01-18 11:26:00,
2013-01-18 06:31:00,5.1,-6.0,29.82,North,360,6.0,6.0,56,0.00,,,0.00,Rainwise IP-100,2013-01-18 11:31:00,
2013-01-18 06:36:00,4.9,-6.0,29.82,NNW,337,1.0,7.0,54,0.00,,,0.00,Rainwise IP-100,2013-01-18 11:36:00,
2013-01-18 06:41:00,4.8,-6.0,29.82,WSW,247,1.0,9.0,54,0.00,,,0.00,Rainwise IP-100,2013-01-18 11:41:00,
2013-01-18 06:46:00,4.6,-6.0,29.82,NW,315,6.0,7.0,56,0.00,,,0.00,Rainwise IP-100,2013-01-18 11:46:00,
2013-01-18 06:51:00,4.3,-6.0,29.83,NNW,337,1.0,6.0,53,0.00,,,0.00,Rainwise IP-100,2013-01-18 11:51:00,
2013-01-18 06:56:00,3.9,-6.0,29.83,North,360,1.0,5.0,53,0.00,,,0.00,Rainwise IP-100,2013-01-18 11:56:00,
2013-01-18 07:01:00,3.9,-6.0,29.83,East,90,4.0,9.0,52,0.00,,,0.00,Rainwise IP-100,2013-01-18 12:01:00,
2013-01-18 07:06:00,3.9,-6.0,29.83,WNW,292,4.0,9.0,54,0.00,,,0.00,Rainwise IP-100,2013-01-18 12:06:00,
2013-01-18 07:11:00,3.8,-6.0,29.83,NW,315,2.0,7.0,53,0.00,,,0.00,Rainwise IP-100,2013-01-18 12:11:00,
2013-01-18 07:16:00,3.8,-6.0,29.84,SSW,202,1.0,5.0,55,0.00,,,0.00,Rainwise IP-100,2013-01-18 12:16:00,
2013-01-18 07:21:00,3.6,-6.0,29.84,NNW,337,1.0,2.0,56,0.00,,,0.00,Rainwise IP-100,2013-01-18 12:21:00,
2013-01-18 07:26:00,3.4,-6.0,29.84,NNW,337,2.0,7.0,57,0.00,,,0.00,Rainwise IP-100,2013-01-18 12:26:00,
2013-01-18 07:31:00,3.3,-6.0,29.85,North,360,1.0,4.0,55,0.00,,,0.00,Rainwise IP-100,2013-01-18 12:31:00,
2013-01-18 07:36:00,3.3,-6.0,29.84,NNW,337,2.0,8.0,55,0.00,,,0.00,Rainwise IP-100,2013-01-18 12:36:00,
2013-01-18 07:41:00,3.4,-6.0,29.84,North,360,0.0,6.0,58,0.00,,,0.00,Rainwise IP-100,2013-01-18 12:41:00,
2013-01-18 07:46:00,3.3,-6.0,29.84,NNW,337,2.0,7.0,58,0.00,,,0.00,Rainwise IP-100,2013-01-18 12:46:00,
2013-01-18 07:51:00,3.3,-6.0,29.85,SE,135,1.0,4.0,60,0.00,,,0.00,Rainwise IP-100,2013-01-18 12:51:00,
2013-01-18 07:56:00,3.3,-6.0,29.85,SW,225,1.0,10.0,59,0.00,,,0.00,Rainwise IP-100,2013-01-18 12:56:00,
2013-01-18 08:01:00,3.3,-6.0,29.85,NNW,337,3.0,5.0,59,0.00,,,0.00,Rainwise IP-100,2013-01-18 13:01:00,
2013-01-18 08:06:00,3.3,-6.0,29.86,SW,225,1.0,9.0,60,0.00,,,0.00,Rainwise IP-100,2013-01-18 13:06:00,
2013-01-18 08:11:00,3.4,-6.0,29.86,East,90,2.0,4.0,59,0.00,,,0.00,Rainwise IP-100,2013-01-18 13:11:00,
2013-01-18 08:16:00,3.4,-6.0,29.87,ESE,112,1.0,4.0,60,0.00,,,0.00,Rainwise IP-100,2013-01-18 13:16:00,
2013-01-18 08:21:00,4.1,-6.0,29.87,NNW,337,3.0,5.0,60,0.00,,,0.00,Rainwise IP-100,2013-01-18 13:21:00,
2013-01-18 08:26:00,4.8,0.0,29.87,North,360,1.0,6.0,61,0.00,,,0.00,Rainwise IP-100,2013-01-18 13:26:00,
2013-01-18 08:31:00,5.1,0.0,29.87,NNW,337,1.0,6.0,59,0.00,,,0.00,Rainwise IP-100,2013-01-18 13:31:00,
2013-01-18 08:36:00,5.4,0.0,29.88,NNW,337,2.0,11.0,60,0.00,,,0.00,Rainwise IP-100,2013-01-18 13:36:00,
2013-01-18 08:41:00,5.6,0.0,29.89,East,90,1.0,8.0,59,0.00,,,0.00,Rainwise IP-100,2013-01-18 13:41:00,
2013-01-18 08:46:00,5.9,0.0,29.88,NNW,337,2.0,6.0,59,0.00,,,0.00,Rainwise IP-100,2013-01-18 13:46:00,
2013-01-18 08:51:00,6.2,0.0,29.88,West,270,0.0,7.0,59,0.00,,,0.00,Rainwise IP-100,2013-01-18 13:51:00,
2013-01-18 08:56:00,6.4,-6.0,29.88,WSW,247,1.0,7.0,58,0.00,,,0.00,Rainwise IP-100,2013-01-18 13:56:00,
2013-01-18 09:01:00,6.6,0.0,29.88,NNW,337,1.0,6.0,59,0.00,,,0.00,Rainwise IP-100,2013-01-18 14:01:00,
2013-01-18 09:06:00,6.6,-6.0,29.88,NNW,337,2.0,12.0,58,0.00,,,0.00,Rainwise IP-100,2013-01-18 14:06:00,
2013-01-18 09:11:00,6.8,0.0,29.88,NNW,337,5.0,10.0,60,0.00,,,0.00,Rainwise IP-100,2013-01-18 14:11:00,
2013-01-18 09:16:00,6.8,0.0,29.89,North,360,2.0,9.0,61,0.00,,,0.00,Rainwise IP-100,2013-01-18 14:16:00,
2013-01-18 09:21:00,7.5,0.0,29.89,North,360,1.0,13.0,61,0.00,,,0.00,Rainwise IP-100,2013-01-18 14:21:00,
2013-01-18 09:26:00,7.6,0.0,29.89,SSW,202,2.0,12.0,59,0.00,,,0.00,Rainwise IP-100,2013-01-18 14:26:00,
2013-01-18 09:31:00,8.3,0.0,29.89,WNW,292,7.0,7.0,60,0.00,,,0.00,Rainwise IP-100,2013-01-18 14:31:00,
2013-01-18 09:36:00,8.2,-6.0,29.90,SSW,202,2.0,9.0,57,0.00,,,0.00,Rainwise IP-100,2013-01-18 14:36:00,
2013-01-18 09:41:00,8.5,0.0,29.90,WSW,247,4.0,9.0,56,0.00,,,0.00,Rainwise IP-100,2013-01-18 14:41:00,
2013-01-18 09:46:00,8.4,-6.0,29.90,East,90,1.0,14.0,54,0.00,,,0.00,Rainwise IP-100,2013-01-18 14:46:00,
2013-01-18 09:51:00,8.7,0.0,29.90,SSW,202,4.0,12.0,54,0.00,,,0.00,Rainwise IP-100,2013-01-18 14:51:00,
2013-01-18 09:56:00,8.8,0.0,29.90,NNW,337,4.0,7.0,52,0.00,,,0.00,Rainwise IP-100,2013-01-18 14:56:00,
2013-01-18 10:01:00,9.2,0.0,29.90,NNW,337,4.0,9.0,54,0.00,,,0.00,Rainwise IP-100,2013-01-18 15:01:00,
2013-01-18 10:06:00,9.2,0.0,29.91,NNW,337,4.0,14.0,53,0.00,,,0.00,Rainwise IP-100,2013-01-18 15:06:00,
2013-01-18 10:11:00,9.2,0.0,29.90,WNW,292,6.0,8.0,54,0.00,,,0.00,Rainwise IP-100,2013-01-18 15:11:00,
2013-01-18 10:16:00,9.5,0.0,29.90,West,270,4.0,9.0,54,0.00,,,0.00,Rainwise IP-100,2013-01-18 15:16:00,
2013-01-18 10:21:00,9.3,0.0,29.90,WNW,292,2.0,11.0,55,0.00,,,0.00,Rainwise IP-100,2013-01-18 15:21:00,
2013-01-18 10:26:00,9.7,0.0,29.90,WSW,247,8.0,9.0,63,0.00,,,0.00,Rainwise IP-100,2013-01-18 15:26:00,
2013-01-18 10:31:00,9.4,0.0,29.90,WSW,247,4.0,15.0,55,0.00,,,0.00,Rainwise IP-100,2013-01-18 15:31:00,
2013-01-18 10:36:00,9.3,0.0,29.90,WSW,247,6.0,11.0,57,0.00,,,0.00,Rainwise IP-100,2013-01-18 15:36:00,
2013-01-18 10:41:00,8.8,0.0,29.90,WNW,292,4.0,11.0,52,0.00,,,0.00,Rainwise IP-100,2013-01-18 15:41:00,
2013-01-18 10:46:00,8.7,-6.0,29.90,WNW,292,1.0,12.0,48,0.00,,,0.00,Rainwise IP-100,2013-01-18 15:46:00,
2013-01-18 10:51:00,8.9,0.0,29.90,East,90,1.0,11.0,50,0.00,,,0.00,Rainwise IP-100,2013-01-18 15:51:00,
2013-01-18 10:56:00,9.4,-6.0,29.90,WSW,247,4.0,12.0,49,0.00,,,0.00,Rainwise IP-100,2013-01-18 15:56:00,
2013-01-18 11:01:00,9.4,-6.0,29.90,North,360,2.0,12.0,49,0.00,,,0.00,Rainwise IP-100,2013-01-18 16:01:00,
2013-01-18 11:06:00,9.5,0.0,29.90,North,360,1.0,12.0,51,0.00,,,0.00,Rainwise IP-100,2013-01-18 16:06:00,
2013-01-18 11:11:00,9.8,0.0,29.90,SW,225,6.0,12.0,54,0.00,,,0.00,Rainwise IP-100,2013-01-18 16:11:00,
2013-01-18 11:16:00,9.7,0.0,29.90,NW,315,4.0,11.0,50,0.00,,,0.00,Rainwise IP-100,2013-01-18 16:16:00,
2013-01-18 11:21:00,9.8,0.0,29.90,WNW,292,3.0,9.0,52,0.00,,,0.00,Rainwise IP-100,2013-01-18 16:21:00,
2013-01-18 11:26:00,9.5,-6.0,29.89,NW,315,2.0,14.0,49,0.00,,,0.00,Rainwise IP-100,2013-01-18 16:26:00,
2013-01-18 11:31:00,9.9,-6.0,29.89,WSW,247,3.0,12.0,49,0.00,,,0.00,Rainwise IP-100,2013-01-18 16:31:00,
2013-01-18 11:36:00,10.2,0.0,29.89,SW,225,6.0,12.0,51,0.00,,,0.00,Rainwise IP-100,2013-01-18 16:36:00,
2013-01-18 11:41:00,10.1,0.0,29.89,South,180,4.0,10.0,52,0.00,,,0.00,Rainwise IP-100,2013-01-18 16:41:00,
2013-01-18 11:46:00,9.9,0.0,29.90,SW,225,5.0,9.0,50,0.00,,,0.00,Rainwise IP-100,2013-01-18 16:46:00,
2013-01-18 11:51:00,10.2,-6.0,29.90,WSW,247,7.0,12.0,49,0.00,,,0.00,Rainwise IP-100,2013-01-18 16:51:00,
2013-01-18 11:56:00,10.5,-6.0,29.88,NW,315,3.0,10.0,47,0.00,,,0.00,Rainwise IP-100,2013-01-18 16:56:00,
2013-01-18 12:01:00,10.6,0.0,29.90,SSW,202,1.0,8.0,51,0.00,,,0.00,Rainwise IP-100,2013-01-18 17:01:00,
2013-01-18 12:06:00,11.3,0.0,29.88,SW,225,4.0,7.0,53,0.00,,,0.00,Rainwise IP-100,2013-01-18 17:06:00,
2013-01-18 12:11:00,11.5,0.0,29.88,West,270,1.0,8.0,48,0.00,,,0.00,Rainwise IP-100,2013-01-18 17:11:00,
2013-01-18 12:16:00,11.3,-6.0,29.89,SW,225,5.0,11.0,47,0.00,,,0.00,Rainwise IP-100,2013-01-18 17:16:00,
2013-01-18 12:21:00,11.9,0.0,29.89,WSW,247,4.0,8.0,54,0.00,,,0.00,Rainwise IP-100,2013-01-18 17:21:00,
2013-01-18 12:26:00,11.8,0.0,29.89,WSW,247,10.0,10.0,46,0.00,,,0.00,Rainwise IP-100,2013-01-18 17:26:00,
2013-01-18 12:31:00,11.7,0.0,29.89,WSW,247,1.0,11.0,49,0.00,,,0.00,Rainwise IP-100,2013-01-18 17:31:00,
2013-01-18 12:36:00,11.8,0.0,29.89,SW,225,5.0,9.0,50,0.00,,,0.00,Rainwise IP-100,2013-01-18 17:36:00,
2013-01-18 12:41:00,11.9,0.0,29.90,NW,315,2.0,12.0,51,0.00,,,0.00,Rainwise IP-100,2013-01-18 17:41:00,
2013-01-18 12:46:00,12.1,0.0,29.90,WNW,292,4.0,9.0,49,0.00,,,0.00,Rainwise IP-100,2013-01-18 17:46:00,
2013-01-18 12:51:00,12.2,0.0,29.90,NNW,337,6.0,12.0,44,0.00,,,0.00,Rainwise IP-100,2013-01-18 17:51:00,
2013-01-18 12:56:00,11.9,0.0,29.91,WSW,247,4.0,11.0,47,0.00,,,0.00,Rainwise IP-100,2013-01-18 17:56:00,
2013-01-18 13:01:00,11.9,0.0,29.91,West,270,4.0,11.0,46,0.00,,,0.00,Rainwise IP-100,2013-01-18 18:01:00,
2013-01-18 13:06:00,12.2,0.0,29.91,East,90,2.0,18.0,44,0.00,,,0.00,Rainwise IP-100,2013-01-18 18:06:00,
2013-01-18 13:11:00,12.4,0.0,29.91,NNW,337,2.0,10.0,46,0.00,,,0.00,Rainwise IP-100,2013-01-18 18:11:00,
2013-01-18 13:16:00,12.3,0.0,29.91,WSW,247,7.0,11.0,45,0.00,,,0.00,Rainwise IP-100,2013-01-18 18:16:00,
2013-01-18 13:21:00,12.1,0.0,29.92,West,270,6.0,11.0,44,0.00,,,0.00,Rainwise IP-100,2013-01-18 18:21:00,
2013-01-18 13:26:00,12.4,0.0,29.92,NNW,337,2.0,12.0,44,0.00,,,0.00,Rainwise IP-100,2013-01-18 18:26:00,
2013-01-18 13:31:00,13.2,0.0,29.92,West,270,7.0,9.0,46,0.00,,,0.00,Rainwise IP-100,2013-01-18 18:31:00,
2013-01-18 13:36:00,13.4,0.0,29.92,WSW,247,3.0,12.0,53,0.00,,,0.00,Rainwise IP-100,2013-01-18 18:36:00,
2013-01-18 13:41:00,13.4,0.0,29.92,North,360,1.0,9.0,53,0.00,,,0.00,Rainwise IP-100,2013-01-18 18:41:00,
2013-01-18 13:46:00,13.4,0.0,29.92,West,270,9.0,9.0,52,0.00,,,0.00,Rainwise IP-100,2013-01-18 18:46:00,
2013-01-18 13:51:00,12.9,0.0,29.92,NNW,337,1.0,12.0,48,0.00,,,0.00,Rainwise IP-100,2013-01-18 18:51:00,
2013-01-18 13:56:00,14.4,4.0,29.92,NW,315,1.0,9.0,57,0.00,,,0.00,Rainwise IP-100,2013-01-18 18:56:00,
2013-01-18 14:01:00,13.5,0.0,29.93,West,270,14.0,14.0,49,0.00,,,0.00,Rainwise IP-100,2013-01-18 19:01:00,
2013-01-18 14:06:00,13.3,0.0,29.93,NW,315,3.0,14.0,53,0.00,,,0.00,Rainwise IP-100,2013-01-18 19:06:00,
2013-01-18 14:11:00,13.6,0.0,29.93,SW,225,4.0,14.0,49,0.00,,,0.00,Rainwise IP-100,2013-01-18 19:11:00,
2013-01-18 14:16:00,13.8,0.0,29.93,North,360,1.0,12.0,51,0.00,,,0.00,Rainwise IP-100,2013-01-18 19:16:00,
2013-01-18 14:21:00,14.2,0.0,29.93,North,360,2.0,12.0,49,0.00,,,0.00,Rainwise IP-100,2013-01-18 19:21:00,
2013-01-18 14:26:00,13.7,0.0,29.94,SW,225,2.0,12.0,46,0.00,,,0.00,Rainwise IP-100,2013-01-18 19:26:00,
2013-01-18 14:31:00,13.3,0.0,29.94,NW,315,1.0,10.0,45,0.00,,,0.00,Rainwise IP-100,2013-01-18 19:31:00,
2013-01-18 14:36:00,13.6,0.0,29.94,SW,225,6.0,8.0,46,0.00,,,0.00,Rainwise IP-100,2013-01-18 19:36:00,
2013-01-18 14:41:00,13.4,0.0,29.94,WSW,247,2.0,10.0,45,0.00,,,0.00,Rainwise IP-100,2013-01-18 19:41:00,
2013-01-18 14:46:00,13.4,0.0,29.94,WSW,247,2.0,11.0,48,0.00,,,0.00,Rainwise IP-100,2013-01-18 19:46:00,
2013-01-18 14:51:00,13.7,0.0,29.94,WSW,247,5.0,6.0,51,0.00,,,0.00,Rainwise IP-100,2013-01-18 19:51:00,
2013-01-18 14:56:00,13.7,0.0,29.95,West,270,4.0,11.0,50,0.00,,,0.00,Rainwise IP-100,2013-01-18 19:56:00,
2013-01-18 15:01:00,13.2,0.0,29.95,WSW,247,5.0,10.0,45,0.00,,,0.00,Rainwise IP-100,2013-01-18 20:01:00,
2013-01-18 15:06:00,13.2,0.0,29.95,WSW,247,7.0,9.0,45,0.00,,,0.00,Rainwise IP-100,2013-01-18 20:06:00,
2013-01-18 15:11:00,13.1,0.0,29.95,WSW,247,5.0,11.0,46,0.00,,,0.00,Rainwise IP-100,2013-01-18 20:11:00,
2013-01-18 15:16:00,13.1,0.0,29.95,WSW,247,6.0,9.0,49,0.00,,,0.00,Rainwise IP-100,2013-01-18 20:16:00,
2013-01-18 15:21:00,12.9,0.0,29.96,WSW,247,2.0,9.0,45,0.00,,,0.00,Rainwise IP-100,2013-01-18 20:21:00,
2013-01-18 15:26:00,12.8,0.0,29.96,West,270,6.0,9.0,44,0.00,,,0.00,Rainwise IP-100,2013-01-18 20:26:00,
2013-01-18 15:31:00,12.9,0.0,29.97,WSW,247,5.0,9.0,48,0.00,,,0.00,Rainwise IP-100,2013-01-18 20:31:00,
2013-01-18 15:36:00,12.8,0.0,29.97,WSW,247,2.0,9.0,45,0.00,,,0.00,Rainwise IP-100,2013-01-18 20:36:00,
2013-01-18 15:41:00,12.9,0.0,29.97,WSW,247,4.0,9.0,46,0.00,,,0.00,Rainwise IP-100,2013-01-18 20:41:00,
2013-01-18 15:46:00,12.7,0.0,29.97,SW,225,2.0,12.0,50,0.00,,,0.00,Rainwise IP-100,2013-01-18 20:46:00,
2013-01-18 15:51:00,12.1,0.0,29.98,SSW,202,4.0,8.0,48,0.00,,,0.00,Rainwise IP-100,2013-01-18 20:51:00,
2013-01-18 15:56:00,12.1,0.0,29.98,West,270,5.0,8.0,52,0.00,,,0.00,Rainwise IP-100,2013-01-18 20:56:00,
2013-01-18 16:01:00,11.9,0.0,29.98,WSW,247,4.0,7.0,50,0.00,,,0.00,Rainwise IP-100,2013-01-18 21:01:00,
2013-01-18 16:06:00,11.9,0.0,29.97,WSW,247,3.0,7.0,51,0.00,,,0.00,Rainwise IP-100,2013-01-18 21:06:00,
2013-01-18 16:11:00,11.8,0.0,29.97,SW,225,7.0,9.0,49,0.00,,,0.00,Rainwise IP-100,2013-01-18 21:11:00,
2013-01-18 16:16:00,11.8,0.0,29.98,West,270,4.0,8.0,49,0.00,,,0.00,Rainwise IP-100,2013-01-18 21:16:00,
2013-01-18 16:21:00,11.9,0.0,29.98,West,270,5.0,8.0,50,0.00,,,0.00,Rainwise IP-100,2013-01-18 21:21:00,
2013-01-18 16:26:00,12.1,0.0,29.98,WSW,247,6.0,7.0,53,0.00,,,0.00,Rainwise IP-100,2013-01-18 21:26:00,
2013-01-18 16:31:00,11.9,0.0,29.98,West,270,3.0,9.0,48,0.00,,,0.00,Rainwise IP-100,2013-01-18 21:31:00,
2013-01-18 16:36:00,11.9,0.0,29.98,WSW,247,4.0,9.0,50,0.00,,,0.00,Rainwise IP-100,2013-01-18 21:36:00,
2013-01-18 16:41:00,12.1,0.0,29.98,WSW,247,4.0,7.0,53,0.00,,,0.00,Rainwise IP-100,2013-01-18 21:41:00,
2013-01-18 16:46:00,12.1,0.0,29.98,WSW,247,6.0,7.0,53,0.00,,,0.00,Rainwise IP-100,2013-01-18 21:46:00,
2013-01-18 16:51:00,11.9,0.0,29.98,WSW,247,4.0,9.0,50,0.00,,,0.00,Rainwise IP-100,2013-01-18 21:51:00,
2013-01-18 16:56:00,11.9,0.0,29.98,WSW,247,4.0,6.0,51,0.00,,,0.00,Rainwise IP-100,2013-01-18 21:56:00,
2013-01-18 17:01:00,11.9,0.0,29.98,WSW,247,3.0,6.0,54,0.00,,,0.00,Rainwise IP-100,2013-01-18 22:01:00,
2013-01-18 17:06:00,11.8,0.0,29.98,WSW,247,4.0,8.0,52,0.00,,,0.00,Rainwise IP-100,2013-01-18 22:06:00,
2013-01-18 17:11:00,12.1,0.0,29.98,West,270,4.0,9.0,53,0.00,,,0.00,Rainwise IP-100,2013-01-18 22:11:00,
2013-01-18 17:16:00,12.3,0.0,29.98,West,270,3.0,6.0,52,0.00,,,0.00,Rainwise IP-100,2013-01-18 22:16:00,
2013-01-18 17:21:00,12.4,0.0,29.98,WSW,247,2.0,7.0,53,0.00,,,0.00,Rainwise IP-100,2013-01-18 22:21:00,
2013-01-18 17:26:00,12.4,0.0,29.98,WSW,247,5.0,9.0,50,0.00,,,0.00,Rainwise IP-100,2013-01-18 22:26:00,
2013-01-18 17:31:00,12.6,0.0,29.97,SW,225,2.0,8.0,55,0.00,,,0.00,Rainwise IP-100,2013-01-18 22:31:00,
2013-01-18 17:36:00,12.7,0.0,29.98,WSW,247,6.0,8.0,54,0.00,,,0.00,Rainwise IP-100,2013-01-18 22:36:00,
2013-01-18 17:41:00,12.9,0.0,29.98,WSW,247,3.0,7.0,54,0.00,,,0.00,Rainwise IP-100,2013-01-18 22:41:00,
2013-01-18 17:46:00,13.1,0.0,29.98,WSW,247,3.0,7.0,52,0.00,,,0.00,Rainwise IP-100,2013-01-18 22:46:00,
2013-01-18 17:51:00,13.1,0.0,29.98,WSW,247,6.0,7.0,54,0.00,,,0.00,Rainwise IP-100,2013-01-18 22:51:00,
2013-01-18 17:56:00,13.4,0.0,29.98,WSW,247,4.0,7.0,55,0.00,,,0.00,Rainwise IP-100,2013-01-18 22:56:00,
2013-01-18 18:01:00,13.4,0.0,29.99,West,270,1.0,8.0,55,0.00,,,0.00,Rainwise IP-100,2013-01-18 23:01:00,
2013-01-18 18:06:00,13.6,0.0,29.99,WSW,247,4.0,10.0,55,0.00,,,0.00,Rainwise IP-100,2013-01-18 23:06:00,
2013-01-18 18:11:00,13.9,4.0,29.99,WSW,247,6.0,7.0,57,0.00,,,0.00,Rainwise IP-100,2013-01-18 23:11:00,
2013-01-18 18:16:00,13.9,0.0,29.99,SW,225,1.0,9.0,53,0.00,,,0.00,Rainwise IP-100,2013-01-18 23:16:00,
2013-01-18 18:21:00,13.9,0.0,29.99,WSW,247,6.0,7.0,54,0.00,,,0.00,Rainwise IP-100,2013-01-18 23:21:00,
2013-01-18 18:26:00,14.5,4.0,29.99,WSW,247,2.0,9.0,58,0.00,,,0.00,Rainwise IP-100,2013-01-18 23:26:00,
2013-01-18 18:31:00,14.6,4.0,30.00,SW,225,4.0,9.0,57,0.00,,,0.00,Rainwise IP-100,2013-01-18 23:31:00,
2013-01-18 18:36:00,14.3,0.0,30.00,SW,225,5.0,6.0,55,0.00,,,0.00,Rainwise IP-100,2013-01-18 23:36:00,
2013-01-18 18:41:00,14.2,0.0,30.00,SW,225,6.0,10.0,55,0.00,,,0.00,Rainwise IP-100,2013-01-18 23:41:00,
2013-01-18 18:46:00,14.6,4.0,30.01,WSW,247,6.0,9.0,54,0.00,,,0.00,Rainwise IP-100,2013-01-18 23:46:00,
2013-01-18 18:51:00,15.1,4.0,30.01,WSW,247,4.0,10.0,55,0.00,,,0.00,Rainwise IP-100,2013-01-18 23:51:00,
2013-01-18 18:56:00,15.5,4.0,30.01,WSW,247,5.0,12.0,57,0.00,,,0.00,Rainwise IP-100,2013-01-18 23:56:00,
2013-01-18 19:01:00,15.6,4.0,30.01,SW,225,6.0,11.0,51,0.00,,,0.00,Rainwise IP-100,2013-01-19 00:01:00,
2013-01-18 19:06:00,15.7,4.0,30.01,WSW,247,7.0,12.0,52,0.00,,,0.00,Rainwise IP-100,2013-01-19 00:06:00,
2013-01-18 19:11:00,15.9,4.0,30.01,West,270,6.0,11.0,52,0.00,,,0.00,Rainwise IP-100,2013-01-19 00:11:00,
2013-01-18 19:16:00,15.9,4.0,30.01,WSW,247,5.0,16.0,52,0.00,,,0.00,Rainwise IP-100,2013-01-19 00:16:00,
2013-01-18 19:21:00,16.2,4.0,30.01,West,270,6.0,14.0,53,0.00,,,0.00,Rainwise IP-100,2013-01-19 00:21:00,
2013-01-18 19:26:00,16.6,8.0,30.00,WSW,247,9.0,11.0,55,0.00,,,0.00,Rainwise IP-100,2013-01-19 00:26:00,
2013-01-18 19:31:00,16.5,4.0,30.00,WSW,247,12.0,14.0,51,0.00,,,0.00,Rainwise IP-100,2013-01-19 00:31:00,
2013-01-18 19:36:00,16.6,4.0,30.00,WSW,247,9.0,18.0,50,0.00,,,0.00,Rainwise IP-100,2013-01-19 00:36:00,
2013-01-18 19:41:00,16.8,4.0,30.00,WSW,247,7.0,12.0,50,0.00,,,0.00,Rainwise IP-100,2013-01-19 00:41:00,
2013-01-18 19:46:00,16.9,4.0,30.00,WSW,247,7.0,12.0,51,0.00,,,0.00,Rainwise IP-100,2013-01-19 00:46:00,
2013-01-18 19:51:00,16.9,4.0,30.00,WSW,247,4.0,14.0,49,0.00,,,0.00,Rainwise IP-100,2013-01-19 00:51:00,
2013-01-18 19:56:00,16.9,4.0,30.02,SW,225,12.0,16.0,49,0.00,,,0.00,Rainwise IP-100,2013-01-19 00:56:00,
2013-01-18 20:01:00,17.1,4.0,30.02,WSW,247,9.0,14.0,48,0.00,,,0.00,Rainwise IP-100,2013-01-19 01:01:00,
2013-01-18 20:06:00,17.5,8.0,30.02,SW,225,5.0,12.0,55,0.00,,,0.00,Rainwise IP-100,2013-01-19 01:06:00,
2013-01-18 20:11:00,17.6,4.0,30.02,WSW,247,9.0,12.0,52,0.00,,,0.00,Rainwise IP-100,2013-01-19 01:11:00,
2013-01-18 20:16:00,17.7,4.0,30.02,SW,225,4.0,15.0,49,0.00,,,0.00,Rainwise IP-100,2013-01-19 01:16:00,
2013-01-18 20:21:00,17.9,4.0,30.02,SSW,202,3.0,14.0,51,0.00,,,0.00,Rainwise IP-100,2013-01-19 01:21:00,
2013-01-18 20:26:00,17.7,4.0,30.02,WSW,247,8.0,12.0,49,0.00,,,0.00,Rainwise IP-100,2013-01-19 01:26:00,
2013-01-18 20:31:00,17.7,4.0,30.02,WSW,247,7.0,12.0,48,0.00,,,0.00,Rainwise IP-100,2013-01-19 01:31:00,
2013-01-18 20:36:00,17.7,4.0,30.02,WSW,247,3.0,11.0,47,0.00,,,0.00,Rainwise IP-100,2013-01-19 01:36:00,
2013-01-18 20:41:00,17.7,4.0,30.03,West,270,11.0,16.0,49,0.00,,,0.00,Rainwise IP-100,2013-01-19 01:41:00,
2013-01-18 20:46:00,17.8,4.0,30.03,West,270,15.0,20.0,50,0.00,,,0.00,Rainwise IP-100,2013-01-19 01:46:00,
2013-01-18 20:51:00,17.8,4.0,30.03,West,270,7.0,15.0,50,0.00,,,0.00,Rainwise IP-100,2013-01-19 01:51:00,
2013-01-18 20:56:00,17.9,4.0,30.03,WSW,247,8.0,11.0,52,0.00,,,0.00,Rainwise IP-100,2013-01-19 01:56:00,
2013-01-18 21:01:00,17.9,4.0,30.03,WSW,247,7.0,15.0,48,0.00,,,0.00,Rainwise IP-100,2013-01-19 02:01:00,
2013-01-18 21:06:00,18.1,4.0,30.04,WSW,247,7.0,16.0,50,0.00,,,0.00,Rainwise IP-100,2013-01-19 02:06:00,
2013-01-18 21:11:00,18.0,4.0,30.04,WSW,247,9.0,14.0,49,0.00,,,0.00,Rainwise IP-100,2013-01-19 02:11:00,
2013-01-18 21:16:00,18.1,4.0,30.04,SSW,202,4.0,12.0,48,0.00,,,0.00,Rainwise IP-100,2013-01-19 02:16:00,
2013-01-18 21:21:00,17.9,4.0,30.04,WSW,247,7.0,11.0,48,0.00,,,0.00,Rainwise IP-100,2013-01-19 02:21:00,
2013-01-18 21:26:00,17.9,4.0,30.04,SW,225,5.0,12.0,49,0.00,,,0.00,Rainwise IP-100,2013-01-19 02:26:00,
2013-01-18 21:31:00,17.9,4.0,30.04,West,270,6.0,10.0,51,0.00,,,0.00,Rainwise IP-100,2013-01-19 02:31:00,
2013-01-18 21:36:00,17.9,4.0,30.04,WSW,247,2.0,9.0,52,0.00,,,0.00,Rainwise IP-100,2013-01-19 02:36:00,
2013-01-18 21:41:00,18.1,4.0,30.04,WSW,247,4.0,14.0,53,0.00,,,0.00,Rainwise IP-100,2013-01-19 02:41:00,
2013-01-18 21:46:00,18.0,4.0,30.04,WSW,247,1.0,9.0,52,0.00,,,0.00,Rainwise IP-100,2013-01-19 02:46:00,
2013-01-18 21:51:00,17.9,4.0,30.04,WSW,247,2.0,6.0,54,0.00,,,0.00,Rainwise IP-100,2013-01-19 02:51:00,
2013-01-18 21:56:00,17.9,8.0,30.04,West,270,1.0,7.0,57,0.00,,,0.00,Rainwise IP-100,2013-01-19 02:56:00,
2013-01-18 22:01:00,18.0,8.0,30.04,WSW,247,4.0,6.0,59,0.00,,,0.00,Rainwise IP-100,2013-01-19 03:01:00,
2013-01-18 22:06:00,17.9,4.0,30.04,West,270,2.0,7.0,53,0.00,,,0.00,Rainwise IP-100,2013-01-19 03:06:00,
2013-01-18 22:11:00,17.9,8.0,30.04,West,270,2.0,7.0,55,0.00,,,0.00,Rainwise IP-100,2013-01-19 03:11:00,
2013-01-18 22:16:00,18.0,4.0,30.03,SW,225,3.0,7.0,53,0.00,,,0.00,Rainwise IP-100,2013-01-19 03:16:00,
2013-01-18 22:21:00,18.2,8.0,30.03,WSW,247,4.0,8.0,55,0.00,,,0.00,Rainwise IP-100,2013-01-19 03:21:00,
2013-01-18 22:26:00,18.5,8.0,30.03,West,270,4.0,7.0,58,0.00,,,0.00,Rainwise IP-100,2013-01-19 03:26:00,
2013-01-18 22:31:00,18.3,8.0,30.04,WSW,247,3.0,6.0,57,0.00,,,0.00,Rainwise IP-100,2013-01-19 03:31:00,
2013-01-18 22:36:00,18.1,8.0,30.03,WSW,247,2.0,5.0,59,0.00,,,0.00,Rainwise IP-100,2013-01-19 03:36:00,
2013-01-18 22:41:00,17.9,4.0,30.03,WSW,247,3.0,4.0,54,0.00,,,0.00,Rainwise IP-100,2013-01-19 03:41:00,
2013-01-18 22:46:00,18.1,4.0,30.03,WSW,247,5.0,6.0,53,0.00,,,0.00,Rainwise IP-100,2013-01-19 03:46:00,
2013-01-18 22:51:00,18.4,4.0,30.03,NW,315,4.0,8.0,51,0.00,,,0.00,Rainwise IP-100,2013-01-19 03:51:00,
2013-01-18 22:56:00,18.6,8.0,30.03,WSW,247,6.0,9.0,52,0.00,,,0.00,Rainwise IP-100,2013-01-19 03:56:00,
2013-01-18 23:01:00,18.7,8.0,30.03,West,270,5.0,7.0,53,0.00,,,0.00,Rainwise IP-100,2013-01-19 04:01:00,
2013-01-18 23:06:00,18.7,8.0,30.03,West,270,2.0,7.0,55,0.00,,,0.00,Rainwise IP-100,2013-01-19 04:06:00,
2013-01-18 23:11:00,18.9,8.0,30.03,West,270,4.0,9.0,51,0.00,,,0.00,Rainwise IP-100,2013-01-19 04:11:00,
2013-01-18 23:16:00,19.0,8.0,30.02,WSW,247,4.0,9.0,51,0.00,,,0.00,Rainwise IP-100,2013-01-19 04:16:00,
2013-01-18 23:21:00,19.1,4.0,30.03,WSW,247,4.0,9.0,49,0.00,,,0.00,Rainwise IP-100,2013-01-19 04:21:00,
2013-01-18 23:26:00,19.1,4.0,30.03,WSW,247,5.0,9.0,48,0.00,,,0.00,Rainwise IP-100,2013-01-19 04:26:00,
2013-01-18 23:31:00,19.1,4.0,30.03,NW,315,2.0,8.0,47,0.00,,,0.00,Rainwise IP-100,2013-01-19 04:31:00,
2013-01-18 23:36:00,19.2,4.0,30.03,WSW,247,6.0,9.0,47,0.00,,,0.00,Rainwise IP-100,2013-01-19 04:36:00,
2013-01-18 23:41:00,19.3,4.0,30.03,WSW,247,6.0,9.0,48,0.00,,,0.00,Rainwise IP-100,2013-01-19 04:41:00,
2013-01-18 23:46:00,19.4,4.0,30.03,West,270,6.0,9.0,47,0.00,,,0.00,Rainwise IP-100,2013-01-19 04:46:00,
2013-01-18 23:51:00,19.3,8.0,30.03,West,270,6.0,10.0,50,0.00,,,0.00,Rainwise IP-100,2013-01-19 04:51:00,
2013-01-18 23:56:00,19.3,8.0,30.03,WSW,247,4.0,7.0,55,0.00,,,0.00,Rainwise IP-100,2013-01-19 04:56:00,